Regional Weather Roundup
Issued by NWS Huntsville, AL

Current Version | Previous Version | Text Only | Print | Product List | Glossary On
Versions: 1 2 3 4 5 6 7 8 9 10 11 12 13 14 15 16 17 18 19 20 21 22 23 24 25 26 27 28 29 30 31 32 33 34 35 36 37 38 39 40 41 42 43 44 45 46 47 48 49 50
187
ASUS44 KHUN 280810
RWRHUN

WEATHER ROUNDUP FOR THE TENNESSEE VALLEY
NATIONAL WEATHER SERVICE HUNTSVILLE AL
300 AM CDT TUE MAR 28 2017

ALZ001>004-280900-
NORTHWEST ALABAMA

CITY           SKY/WX    TMP DP  RH WIND       PRES   REMARKS
COURTLAND HCN    N/A     59 N/A N/A S3          N/A
RUSSELLVILLE     N/A     59 N/A N/A MISG        N/A
SHOALS AIRPORT MOCLDY    60  58  92 CALM      29.91S
SHOALS TVA RES   N/A     59 N/A N/A MISG        N/A
$$

ALZ005>007-016-280900-
NORTH CENTRAL ALABAMA

CITY           SKY/WX    TMP DP  RH WIND       PRES   REMARKS
CULLMAN AG STN   N/A     61 N/A N/A SW3         N/A
DECATUR AP     PTCLDY    57  57 100 S3        29.91S FOG
HUNTSVILLE AP  MOCLDY    59  59 100 SE3       29.91S FOG
MERIDIANVILLE  MOCLDY    55  54  94 CALM      29.91S
REDSTONE ARSN  MOCLDY    58  57  99 CALM      29.91S FOG
VINEMONT AP    LGT RAIN  60  58  95 CALM      29.94F
$$

ALZ008>010-280900-
NORTHEAST ALABAMA

CITY           SKY/WX    TMP DP  RH WIND       PRES   REMARKS
ALBERTVILLE    CLOUDY    61  61 100 S7        29.92S
FORT PAYNE       N/A     57  54  88 CALM      29.92S FOG
SCOTTSBORO AP  CLOUDY    57  57 100 CALM      29.93S FOG
SCOTTSBORO HCN   N/A     55 N/A N/A MISG        N/A
VALLEY HEAD      N/A     57 N/A N/A MISG        N/A
$$

TNZ076-096-097-280900-
SOUTHEASTERN MIDDLE TENNESSEE

CITY           SKY/WX    TMP DP  RH WIND       PRES   REMARKS
TULLAHOMA      CLEAR     54  54 100 S5          N/A
WINCHESTER     CLEAR     55  55 100 SE5       29.91S
$$

...SURROUNDING SITES...

CITY           SKY/WX    TMP DP  RH WIND       PRES   REMARKS
ATLANTA        CLOUDY    64  59  83 W6        29.96S
ANNISTON       RAIN      66  63  90 NW7       29.95R
BIRMINGHAM     LGT RAIN  63  60  90 CALM      29.97S
CHATTANOOGA    MOCLDY    57  57 100 CALM      29.92F
CORINTH        MOCLDY    61  59  94 NW3       29.90S
DALTON         CLOUDY    55  55 100 CALM      29.94F
GADSDEN        RAIN      62  61  96 S6        29.95R
GOLDEN TRNGL   PTCLDY    64  59  82 SW5       29.87S
HALEYVILLE     LGT RAIN  60  59  96 VRB3      29.94R
JACKSON TN     FOG       54  54 100 CALM      29.92S VSB 1/4
MEMPHIS        PTCLDY    63  58  83 CALM      29.91S
NASHVILLE      CLOUDY    58  57  97 W6        29.90S
OXFORD MS      CLOUDY    63  55  77 CALM      29.93S
ROME           CLOUDY    61  58  90 S6        29.92F
SAVANNAH       FOG       61  59  94 CALM      29.91R VSB 0
TUPELO         CLOUDY    63  61  93 CALM      29.90S
TUSCALOOSA     CLOUDY    65  64  97 S6        29.93S
$$

...GULF COAST WEATHER...

CITY           SKY/WX    TMP DP  RH WIND       PRES   REMARKS
GULFPORT       MOCLDY    72  69  90 VRB5      29.95F
PASCAGOULA     PTCLDY    70  67  90 S3        29.96F
MOBILE         CLOUDY    68  66  93 CALM      29.98F
GULF SHORES    CLOUDY    70  70 100 S7        29.98F
PENSACOLA      CLOUDY    71  68  90 S8        29.98F
DESTIN         CLOUDY    72  72 100 SW3       29.99F
PANAMA CITY    PTCLDY    68  68 100 S6        30.01S
APPALACHICOLA  CLEAR     64  64 100 SW3       30.00F
$$





USA.gov is the U.S. government's official web portal to all federal, state and local government web resources and services.